Regional Weather Roundup
Issued by NWS

Home | Current Version | Previous Version | Text Only | Print | Product List | Glossary On
Versions: 1 2 3 4 5 6 7 8 9 10 11 12 13 14 15 16 17 18 19 20 21 22 23 24 25 26 27 28
000
ASUS42 KTBW 191216
RWRFL
FLORIDA REGIONAL WEATHER ROUNDUP
NATIONAL WEATHER SERVICE TAMPA BAY RUSKIN FL
700 AM EST SUN FEB 19 2017

NOTE: "FAIR" INDICATES FEW OR NO CLOUDS BELOW 12,000 FEET WITH NO
SIGNIFICANT WEATHER AND/OR OBSTRUCTIONS TO VISIBILITY.

FLZ001>010-012>015-112-114-115-191300-
PANHANDLE FLORIDA

CITY           SKY/WX    TMP DP  RH WIND       PRES   REMARKS
PENSACOLA      FOG       57  55  93 N8        30.04R VSB 1
PENSACOLA NAS  MOCLDY    54  53  97 NW6       30.03R FOG
MILTON NAS     LGT RAIN  52  52 100 CALM      30.05  VSB 1/2
CRESTVIEW      FOG       50  49  96 CALM      30.05R VSB 1/4
DUKE FIELD     CLOUDY    50  50 100 CALM      30.04R FOG
VALPARAISO     PTCLDY    53  53 100 CALM      30.03R FOG
MARY ESTHER    HAZE      52  46  82 N6        30.03  VSB 3/4
PANAMA CITY    CLOUDY    52  51  97 CALM      30.03R FOG
TYNDALL AFB    FOG       55  55 100 CALM      30.04R VSB 1/2
APALACHICOLA   FOG       53  53 100 CALM      30.02R VSB 1/2

STATION/POSITION SKY/WX   TEMP    WIND        PRES    WAVE   SWELL
                          AIR SEA DIR/SP/G            HT/PER HT/PER
                          (F)     (DEG/KT/KT) (MB)    (FT/S) (FT/S)
30.1N   87.6W              67 67  220/  6/  6 1015.9    2/ 6   2/ 6
28.8N   86.0W              70 70              1016.3    3/ 5   2/ 5
PANAMA CITY BEAC           56      40/  5/  6 1017.0R
TOWER C                    65        CALM     1017.5R
28.5N   84.5W              70 69  300/  4/  6 1015.9    2/ 5   2/ 5

$$
FLZ011-016>038-118-127-128-134-139-239-191300-
NORTH FLORIDA

CITY           SKY/WX    TMP DP  RH WIND       PRES   REMARKS
MARIANNA       FOG       58  58 100 CALM      30.04R VSB 1/4
TALLAHASSEE    CLOUDY    60  60 100 CALM      30.04R FOG
PERRY          FOG       61  60  97 N3        30.05R VSB 3/4
CROSS CITY     CLOUDY    64  64 100 NW5       30.04R FOG
LAKE CITY      CLOUDY    59  59 100 CALM      30.04R FOG
GAINESVILLE    LGT RAIN  62  62 100 NW3       30.04R
WILLISTON      FOG       66  64  94 W3        30.04R VSB 1/2
PALATKA        FOG       63  63 100 NW3       30.04R VSB 3/4
MAYPORT NAS    CLOUDY    63  59  87 W5        30.03R
JACKSONVILLE   MOCLDY    56  56 100 W3        30.03R
JAX NAS        CLOUDY    62  61  96 NW3       30.04R
FERNANDINA BEA FAIR      59  57  94 CALM      30.02R
ST AUGUSTINE   CLOUDY    63  61  93 NW5       30.05R FOG

STATION/POSITION SKY/WX   TEMP    WIND        PRES    WAVE   SWELL
                          AIR SEA DIR/SP/G            HT/PER HT/PER
                          (F)     (DEG/KT/KT) (MB)    (FT/S) (FT/S)
SHELL POINT      NOT AVBL
KEATON BEACH               62     350/  2/  3 1016.9R
CEDAR KEY                  65     300/  3/  4 1017.2R
FERNANDINA                 59 65  230/  1/  4 1017.3R
30.7N   81.3W                 63                N/A     1/ 5
MAYPORT                    62 65  270/  5/  7 1017.1R
31.4N   80.9W              60 61  300/  6/  8 1015.6    1/ 5   2/ 5
ST AUGUSTINE               62 65  320/  5/  7 1018.0R

$$
FLZ040-043>046-052-053-057-058-063-144-191300-
INTERIOR CENTRAL FLORIDA

CITY           SKY/WX    TMP DP  RH WIND       PRES   REMARKS
OCALA          FOG       61  57  88 N5        30.04R VSB 1
THE VILLAGES     N/A     64  64 100 CALM      29.94R
LEESBURG       MOCLDY    63  61  93 NW3       30.04R
SANFORD        CLOUDY    64  63  96 CALM      30.03R
ORLANDO EXEC   PTCLDY    64  63  96 CALM      30.02S FOG
ORLANDO INTL   MOCLDY    65  63  93 CALM      30.03R FOG
KISSIMMEE      CLOUDY    64  64 100 W3        30.04R FOG
WINTER HAVEN   CLOUDY    66  65  96 W3        30.06R FOG
LAKELAND       FOG       64  64 100 CALM      30.04R VSB 1/4
BARTOW         CLOUDY    64 N/A N/A CALM      30.05R FOG
OKEECHOBEE     CLOUDY    68  68 100 W3        30.04R FOG

$$
FLZ041-047-054-059-064-141-147-191300-
EAST CENTRAL FLORIDA

CITY           SKY/WX    TMP DP  RH WIND       PRES   REMARKS
ORMOND BEACH   CLOUDY    63  63 100 NW3       30.03  FOG
DAYTONA BEACH  CLOUDY    63  63 100 W3        30.03R
DELAND         CLOUDY    64  63  94 CALM      30.03R
NEW SMYRNA BEA   N/A     63  63 100 W8        30.03
JFK SPACE CTR  MOCLDY    65  65  98 NW5       30.02R
TITUSVILLE     PTCLDY    64  63  94 W6        30.03  HAZE
CAPE CANAVERAL CLEAR     67  65  93 W6        30.01R
PATRICK AFB    CLEAR     67  67  99 W6        30.02R FOG
MELBOURNE      MOCLDY    65  65 100 W6        30.02R FOG
VERO BEACH     CLOUDY    69  67  93 W6        30.03R FOG
FT PIERCE      CLOUDY    70  68  93 W3        30.02S
STUART         CLOUDY    73  72  94 W6        30.04R

STATION/POSITION SKY/WX   TEMP    WIND        PRES    WAVE   SWELL
                          AIR SEA DIR/SP/G            HT/PER HT/PER
                          (F)     (DEG/KT/KT) (MB)    (FT/S) (FT/S)
TRIDENT PIER               67 71  240/  5/  6 1017.6R
28.4N   80.5W                 71                N/A     1/10
27.5N   80.2W                 73                N/A     2/11

$$
FLZ050-056-061-142-242-148-248-149-249-151-251-155-255-
160-260-191300-
WEST CENTRAL FLORIDA

CITY           SKY/WX    TMP DP  RH WIND       PRES   REMARKS
CRYSTAL RIVER  FOG       63  63 100 CALM      30.04R VSB 1
INVERNESS      FOG       61  61 100 CALM      30.04R VSB 1
BROOKSVILLE    FOG       60  59  96 CALM      30.05R VSB 1/4
CLEARWATER AIR FOG       64  64 100 CALM      30.03R VSB 1/2
ST PETE CLEARW FOG       67  67 100 CALM      30.04R VSB 1/4
TAMPA INTL     CLOUDY    68  67  96 SW5       30.04R FOG
TAMPA EXEC     FOG       68  64  88 CALM      30.04R VSB 1/2
PLANT CITY     CLOUDY    68  68 100 CALM      30.06R FOG
MACDILL AFB    FOG       66  66 100 CALM      30.05R VSB<1/4
PETER O KNIGHT FOG       70  70 100 CALM      30.04R VSB 1/2
ST PETERSBURG  CLOUDY    67  67 100 CALM      30.02R
SARASOTA       FOG       69  67  93 W5        30.02R VSB 1/4
VENICE         CLOUDY    68  68 100 CALM      30.03R FOG

STATION/POSITION SKY/WX   TEMP    WIND        PRES    WAVE   SWELL
                          AIR SEA DIR/SP/G            HT/PER HT/PER
                          (F)     (DEG/KT/KT) (MB)    (FT/S) (FT/S)
27.3N   84.2W                 71                N/A     2/ 6
CLEARWATER BEACH           67 74  230/  2/  2 1017.1R
MIDDLE TAMPA BAY           68     230/  3/  5 1017.0R
VENICE                     69 69  200/  5/  6 1016.5R

$$
FLZ066-069-070-075>078-162-262-165-265-191300-
SOUTHWEST FLORIDA AND KEYS

CITY           SKY/WX    TMP DP  RH WIND       PRES   REMARKS
PUNTA GORDA    CLEAR     68  68 100 SW6       30.04R FOG
FT MYERS       CLEAR     70  70 100 CALM      30.03R VSB 1
SOUTHWEST INTL FOG       71  69  93 W6        30.04R VSB 1/4
NAPLES         CLEAR     71  71 100 SW8       30.03R FOG
MARCO ISLAND   CLEAR     70  66  88 SW5       30.04R
MARATHON       PTCLDY    76  75  97 S3        30.03R
KEY WEST NAS   MOCLDY    68  68 100 CALM      30.03R
KEY WEST INTL  PTCLDY    75  73  93 CALM      30.04R

STATION/POSITION SKY/WX   TEMP    WIND        PRES    WAVE   SWELL
                          AIR SEA DIR/SP/G            HT/PER HT/PER
                          (F)     (DEG/KT/KT) (MB)    (FT/S) (FT/S)
NAPLES                        72              1016.9R
26.0N   85.6W              74 75  120/  8/ 10 1016.8R   3/ 6   2/ 6
DRY TORTUGAS               75     160/  4/  4 1017.0R
SAND KEY                   76     200/  4/  5 1017.5R
LONG KEY                   76 75  180/  5/  5 1017.3R
MOLASSES REEF              76     210/  7/  8 1017.4

$$
FLZ067-068-071>074-168-172>174-191300-
SOUTHEAST FLORIDA

CITY           SKY/WX    TMP DP  RH WIND       PRES   REMARKS
W PALM BEACH   PTCLDY    71  69  93 SW10      30.03R
BOCA RATON     CLEAR     70  68  94 SW5       30.03
FT LAUDER-EXEC CLEAR     71  67  87 S3        30.03R
FT LAUDERDALE  PTCLDY    71  70  96 SW6       30.03R
POMPANO BEACH  CLEAR     71  69  93 SW6       30.03R FOG
PEMBROKE PINES MOCLDY    68  67  96 CALM      30.05R FOG
OPA LOCKA      PTCLDY    69  67  93 CALM      30.05R FOG
MIAMI          PTCLDY    69  69 100 CALM      30.04R
WEST KENDALL   FOG       66  64  93 CALM      30.04R VSB 3/4
HOMESTEAD      FOG       67  67 100 CALM      30.03R VSB<1/4

STATION/POSITION SKY/WX   TEMP    WIND        PRES    WAVE   SWELL
                          AIR SEA DIR/SP/G            HT/PER HT/PER
                          (F)     (DEG/KT/KT) (MB)    (FT/S) (FT/S)
PORT EVERGLADES            73     200/  2/  4 1016.8R
VIRGINIA KEY               73 80  220/  2/  2 1017.5R
LAKE WORTH                 72     220/  7/ 11 1017.4R
FOWEY ROCKS                74 74  220/  8/  9 1017.8R

$$





USA.gov is the U.S. government's official web portal to all federal, state and local government web resources and services.